カタログに戻る

CZ-3A DEB

LostGTO
NORAD 35563·DEBRIS·🇨🇳 China

打ち上げ Feb 2, 2007 から Xichang Satellite Launch Center

Loading…

TLE

古いSource: Space-Track

元期: Jun 1, 2026, 05:54 UTC

1 35563U 07003X   26152.24607113  .00000339  00000-0  59908-2 0  9990
2 35563  21.7032 171.2917 7481304  83.1769 359.3071  1.89935042 15777

AllMySatでCZ-3A DEBをリアルタイム追跡

Download on the App Store